EW7651 Weather Reports


time (UTC)temp
F
wind
direction
speed
knots
gust
knots
rain 1hr
in
rain 24hr
in
rain mn
in
humidity
%
barometer
mb
20260507100106 62 115 0.0 0.0 0.00 0.00 0.00 53 1014.3
20260507094550 62 269 0.0 0.0 0.00 0.00 0.00 51 1014.3
20260507093045 61 134 0.0 0.0 0.00 0.00 0.00 45 1014.2
20260507091545 60 85 0.0 0.0 0.00 0.00 0.00 34 1014.1
20260507090036 59 235 0.0 0.0 0.00 0.00 0.00 39 1014.1
20260507084543 59 182 0.0 0.0 0.00 0.00 0.00 36 1014.1
20260507083032 58 268 0.0 0.0 0.00 0.00 0.00 30 1014.0
20260507081528 57 199 0.0 0.0 0.00 0.00 0.00 22 1014.1
20260507080022 56 211 0.0 0.0 0.00 0.00 0.00 1 1014.0
20260507074518 54 231 0.0 0.0 0.00 0.00 0.00 1 1013.9
20260507073015 53 200 0.0 0.0 0.00 0.00 0.00 1 1013.8
20260507071512 52 211 0.0 0.0 0.00 0.00 0.00 1 1013.7
20260507070010 51 220 0.0 0.0 0.00 0.00 0.00 1 1013.7
20260507064506 50 193 0.0 0.0 0.00 0.00 0.00 1 1013.7
20260507063004 49 124 0.0 0.0 0.00 0.00 0.00 1 1013.7
20260507061558 49 175 0.0 0.0 0.00 0.00 0.00 1 1013.6
20260507060058 48 207 0.0 0.0 0.00 0.00 0.00 1 1013.6
20260507054607 47 207 0.0 0.0 0.00 0.00 0.00 1 1013.5
20260507053051 46 211 0.0 0.0 0.00 0.00 0.00 1 1013.3
20260507051548 45 212 0.0 0.0 0.00 0.00 0.00 1 1013.2
20260507050045 45 215 0.0 0.0 0.00 0.00 0.00 1 1013.0
20260507044539 45 215 0.0 0.0 0.00 0.00 0.00 1 1012.9
20260507043029 45 215 0.0 0.0 0.00 0.00 0.00 1 1012.8
20260507041524 45 215 0.0 0.0 0.00 0.00 0.00 1 1012.7
20260507040020 45 215 0.0 0.0 0.00 0.00 0.00 1 1012.6
20260507034521 45 215 0.0 0.0 0.00 0.00 0.00 1 1012.5
20260507033014 45 215 0.0 0.0 0.00 0.00 0.00 1 1012.4
20260507031509 46 215 0.0 0.0 0.00 0.00 0.00 1 1012.4
20260507030006 46 215 0.0 0.0 0.00 0.00 0.00 1 1012.2
20260507024502 46 215 0.0 0.0 0.00 0.00 0.00 1 1012.2
20260507023058 46 215 0.0 0.0 0.00 0.00 0.00 1 1012.1
20260507021615 47 215 0.0 0.0 0.00 0.00 0.00 1 1012.1
20260507020107 47 215 0.0 0.0 0.00 0.00 0.00 1 1012.0
20260507014616 47 215 0.0 0.0 0.00 0.00 0.00 1 1011.9
20260507013047 48 215 0.0 0.0 0.00 0.00 0.00 1 1011.8
20260507011543 48 215 0.0 0.0 0.00 0.00 0.00 1 1011.8
20260507010042 49 215 0.0 0.0 0.00 0.00 0.00 1 1011.7
20260507004532 49 215 0.0 0.0 0.00 0.00 0.00 1 1011.6
20260507003027 49 215 0.0 0.0 0.00 0.00 0.00 1 1011.6
20260507001526 50 214 0.0 0.0 0.00 0.00 0.00 1 1011.5
20260507000025 51 215 0.0 0.0 0.00 0.00 0.00 1 1011.4
20260506234518 51 216 0.0 0.0 0.00 0.00 0.00 1 1011.4
20260506233014 52 207 0.0 0.0 0.00 0.00 0.00 1 1011.3
20260506231510 52 234 0.0 0.0 0.00 0.00 0.00 5 1011.2
20260506230005 52 98 0.0 0.0 0.00 0.00 0.00 11 1011.2
20260506224503 53 183 0.0 0.0 0.00 0.00 0.00 17 1011.1
20260506223105 53 135 0.0 0.0 0.00 0.00 0.00 23 1011.0
20260506223001 53 135 0.0 0.0 0.00 0.00 0.00 24 1011.0
20260506221604 53 136 0.0 0.0 0.00 0.00 0.00 27 1010.9
20260506220056 54 165 0.0 0.0 0.00 0.00 0.00 31 1010.9
20260506214558 54 199 0.0 0.0 0.00 0.00 0.00 34 1010.7
20260506213057 54 194 0.0 0.0 0.00 0.00 0.00 35 1010.6
20260506211553 55 194 0.0 0.0 0.00 0.00 0.00 35 1010.5
20260506210047 55 255 0.0 0.0 0.00 0.00 0.00 42 1010.4
20260506204543 54 255 0.0 0.0 0.00 0.00 0.00 44 1010.3
20260506203039 54 256 0.0 0.0 0.00 0.00 0.00 41 1010.3
20260506201538 54 250 0.0 0.0 0.00 0.00 0.00 40 1010.1
20260506200032 55 250 0.0 0.0 0.00 0.00 0.00 42 1010.0
20260506194526 55 250 0.0 0.0 0.00 0.00 0.00 45 1009.8
20260506193033 55 250 0.0 0.0 0.00 0.00 0.00 48 1009.7
20260506191518 55 250 0.0 0.0 0.00 0.00 0.00 52 1009.6
20260506190014 56 250 0.0 0.0 0.00 0.00 0.00 52 1009.4
20260506184511 56 250 0.0 0.0 0.00 0.00 0.00 52 1009.3
20260506183006 56 250 0.0 0.0 0.00 0.00 0.00 53 1009.1
20260506181504 56 250 0.0 0.0 0.00 0.00 0.00 53 1008.9
20260506180059 56 250 0.0 0.0 0.00 0.00 0.00 53 1008.7
20260506174556 56 250 0.0 0.0 0.00 0.00 0.00 54 1008.6
20260506173119 56 250 0.0 0.0 0.00 0.00 0.00 54 1008.4
20260506171548 57 252 0.0 0.0 0.00 0.00 0.00 54 1008.3
20260506164540 58 165 0.0 0.0 0.00 0.00 0.00 53 1008.1
20260506163045 59 157 0.0 0.0 0.00 0.00 0.00 53 1008.0
20260506161531 61 194 0.0 0.0 0.00 0.00 0.00 46 1007.9
20260506160028 61 153 0.0 0.0 0.00 0.00 0.00 46 1007.9
20260506154526 61 5 0.0 0.0 0.00 0.00 0.00 47 1007.8
20260506153024 62 281 0.0 0.0 0.00 0.00 0.00 47 1007.8
20260506151516 60 163 0.0 0.9 0.00 0.00 0.00 35 1007.8
20260506150016 60 112 0.0 0.0 0.00 0.00 0.00 38 1007.8
20260506144510 61 215 0.0 0.0 0.00 0.00 0.00 52 1007.7
20260506143011 62 147 0.0 0.0 0.00 0.00 0.00 52 1007.6
20260506141503 62 211 0.0 0.0 0.00 0.00 0.00 47 1007.7
20260506140059 61 331 0.0 0.0 0.00 0.00 0.00 43 1007.8
20260506134559 62 216 0.0 0.9 0.00 0.00 0.00 38 1007.7
20260506133114 61 218 0.0 0.0 0.00 0.00 0.00 31 1007.7
20260506131551 60 263 0.0 0.0 0.00 0.00 0.00 22 1007.7
20260506130045 59 179 0.0 0.0 0.00 0.00 0.00 19 1007.6
20260506124538 58 296 0.0 0.0 0.00 0.00 0.00 31 1007.6
20260506123034 59 227 0.0 0.0 0.00 0.00 0.00 38 1007.5
20260506121530 61 209 0.0 0.0 0.00 0.00 0.00 36 1007.5
20260506120026 60 162 0.0 0.0 0.00 0.00 0.00 20 1007.3
20260506114527 59 322 0.0 0.0 0.00 0.00 0.00 15 1007.3
20260506113019 59 108 0.0 0.0 0.00 0.00 0.00 22 1007.4
20260506111514 60 199 0.0 0.0 0.00 0.00 0.00 27 1007.3
20260506110010 60 250 0.0 0.0 0.00 0.00 0.00 25 1007.3
20260506104520 59 289 0.0 0.0 0.00 0.00 0.00 30 1007.3
20260506103006 59 282 0.0 0.0 0.00 0.00 0.00 22 1007.2
20260506101559 58 306 0.0 0.0 0.00 0.00 0.00 37 1007.3